Location: Unspecified
(52.4292°N, 19.3359°E)
Time: 15:44:10
(UTC+02:00)

Transit 2A Rocket - Pass Details

Date: 24 May 2024
Orbit: 583 x 910 km, 66.7° (Epoch: 22 June)

Event Time Altitude Azimuth Distance (km) Brightness Sun altitude
Rises 09:13:50 0° 308° (NW) 3,269 7.8 39.6°
Reaches altitude 10° 09:16:48 10° 325° (NW) 2,400 7.3 40.0°
Maximum altitude 09:20:56 21° 13° (NNE) 1,831 7.1 40.6°
Drops below altitude 10° 09:25:16 10° 61° (ENE) 2,536 8.3 41.3°
Sets 09:28:31 0° 77° (ENE) 3,509 9.0 41.7°
